Weather History for Casper, WY

Change the Weather History Date:

Monday, March 4, 2013

  Actual Average Record
Temperature  
Mean Temperature 18 °F 32 °F  
Max Temperature 31 °F 44 °F 65 °F (2000)
Min Temperature 5 °F 20 °F -15 °F (1989)
Degree Days  
Heating Degree Days 47 33  
Month to date heating degree days 134 135  
Since 1 July heating degree days 5184 5583  
Cooling Degree Days 0 0  
Month to date cooling degree days 0 0  
Year to date cooling degree days 0 0  
Moisture  
Dew Point 8 °F    
Average Humidity 62    
Maximum Humidity 96    
Minimum Humidity 27    
Precipitation  
Precipitation T in 0.02 in 0.24 in (1992)
Month to date precipitation T 0.08  
Year to date precipitation 0.77 1.16  
Snow  
Snow 0.40 in 0.30 in - ()
Month to date snowfall 0.4 1.2  
Since 1 July snowfall 33.1 50.6  
Snow Depth 0.00 in    
Sea Level Pressure  
Sea Level Pressure 30.07 in    
Wind  
Wind Speed 16 mph (NNW)    
Max Wind Speed 32 mph    
Max Gust Speed 48 mph    
Visibility 9 miles    
Events Snow    
T = Trace of Precipitation, MM = Missing Value Source: NWS Daily Summary

Daily Weather History Graph

Daily Weather History Graph

Search for Another Location

Airport:

Trip Planner

Search our weather history database for the weather conditions in past years. The results will help you decide how hot, cold, wet, or windy it might be!

Date:

Astronomy

Mar. 04, 2013 Rise Set
Actual Time 6:36 AM MST 5:59 PM MST
Civil Twilight 6:07 AM MST 6:27 PM MST
Nautical Twilight 5:35 AM MST 7:00 PM MST
Astronomical Twilight 5:02 AM MST 7:33 PM MST
Moon 12:54 AM MST (3/4) 10:37 AM MST (3/4)
Length of Visible Light 12h 19m
Length of Day
11h 23m
Waning Gibbous, 51% of the Moon is Illuminated
Mar 4
Waning Gibbous
Mar 4
Last Quarter
Mar 11
New
Mar 19
First Quarter
Mar 27
Full

Hourly Weather History & Observations

Time (MST) Temp. Windchill Dew Point Humidity Pressure Visibility Wind Dir Wind Speed Gust Speed Precip Events Conditions
12:53 AM 26.1 °F 16.8 °F 19.0 °F 75% 29.82 in 8.0 mi ENE 9.2 mph - 0.00 in Snow Light Snow
1:53 AM 25.0 °F 19.3 °F 19.9 °F 81% 29.83 in 10.0 mi ENE 4.6 mph - 0.00 in   Overcast
2:10 AM 24.8 °F 19.1 °F 19.4 °F 80% 29.82 in 2.5 mi ENE 4.6 mph - 0.00 in Snow Light Snow
2:37 AM 24.8 °F - 19.4 °F 80% 29.82 in 4.0 mi Calm Calm - 0.00 in Snow Light Snow
2:53 AM 24.1 °F - 21.0 °F 88% 29.83 in 7.0 mi Calm Calm - 0.00 in   Overcast
3:53 AM 23.0 °F 18.4 °F 21.0 °F 92% 29.83 in - WSW 3.5 mph - N/A   Overcast
4:53 AM 24.1 °F 16.0 °F 17.1 °F 75% 29.84 in 10.0 mi WNW 6.9 mph - N/A   Overcast
5:53 AM 24.1 °F 12.0 °F 16.0 °F 71% 29.88 in 10.0 mi NW 13.8 mph - N/A   Overcast
6:53 AM 21.9 °F 9.2 °F 10.9 °F 63% 29.93 in 10.0 mi WNW 13.8 mph 20.7 mph 0.00 in   Overcast
7:53 AM 23.0 °F 9.2 °F 8.1 °F 53% 29.95 in 10.0 mi WNW 17.3 mph 23.0 mph N/A   Mostly Cloudy
8:53 AM 24.1 °F 9.0 °F 7.0 °F 48% 29.99 in 10.0 mi WNW 21.9 mph 33.4 mph N/A   Mostly Cloudy
9:53 AM 26.1 °F 10.4 °F 7.0 °F 44% 30.02 in 10.0 mi WNW 26.5 mph 34.5 mph N/A   Partly Cloudy
10:53 AM 28.9 °F 13.5 °F 3.0 °F 33% 30.01 in 10.0 mi NW 29.9 mph 40.3 mph N/A   Clear
11:53 AM 30.0 °F 14.7 °F 1.9 °F 30% 30.04 in 10.0 mi NW 31.1 mph 47.2 mph N/A   Clear
12:53 PM 30.9 °F 16.4 °F 3.0 °F 31% 30.06 in 10.0 mi NW 28.8 mph 36.8 mph N/A   Clear
1:53 PM 28.0 °F 11.8 °F -2.0 °F 27% 30.10 in 10.0 mi NW 32.2 mph 42.6 mph N/A   Clear
2:53 PM 28.0 °F 12.3 °F 1.0 °F 31% 30.16 in 10.0 mi NNW 29.9 mph 36.8 mph N/A   Clear
3:53 PM 27.0 °F 11.9 °F 1.9 °F 34% 30.19 in 10.0 mi NNW 25.3 mph 32.2 mph N/A   Clear
4:53 PM 26.1 °F 11.3 °F 1.0 °F 34% 30.22 in 10.0 mi NNW 23.0 mph 29.9 mph N/A   Clear
5:53 PM 23.0 °F 9.6 °F 1.9 °F 40% 30.28 in - WNW 16.1 mph - N/A   Clear
6:53 PM 19.9 °F 7.9 °F 3.0 °F 48% 30.33 in 10.0 mi NNW 11.5 mph - N/A   Clear
7:53 PM 16.0 °F 5.3 °F 7.0 °F 68% 30.39 in 10.0 mi NE 8.1 mph - N/A   Clear
8:53 PM 14.0 °F 8.2 °F 7.0 °F 74% 30.40 in 10.0 mi ENE 3.5 mph - N/A   Clear
9:53 PM 10.9 °F - 5.0 °F 77% 30.40 in - Calm Calm - N/A   Clear
10:53 PM 7.0 °F - 1.0 °F 77% 30.40 in - Calm Calm - N/A   Clear